Weather reports worldwide

Advertisment
Gioia Del Colle, Italy (16312): temperature & dewpoint: 19.03.2019 07:00:00 - 25.03.2019 07:00:00 (CET)Gioia Del Colle, Italy (16312): wind speed: 19.03.2019 07:00:00 - 25.03.2019 07:00:00 (CET)Gioia Del Colle, Italy (16312): wind direction: 19.03.2019 07:00:00 - 25.03.2019 07:00:00 (CET)Gioia Del Colle, Italy (16312): reduced air pressure: 19.03.2019 07:00:00 - 25.03.2019 07:00:00 (CET)Gioia Del Colle, Italy (16312): visibility: 19.03.2019 07:00:00 - 25.03.2019 07:00:00 (CET)
Date & Time tt [°C] td [°C] ff [km/h] ff [kn] dd ppp [hPa] vv [km]
25.03.2019 07:00:00 8,0 4,4 8 4 S 1016,1 10
25.03.2019 06:00:00 8,0 4,0 8 4 S - 10
25.03.2019 05:00:00 7,0 5,0 4 2 S - 10
25.03.2019 04:00:00 7,2 4,9 5 3 S 1016,9 10
25.03.2019 03:00:00 8,0 6,0 2 1 - - 10
25.03.2019 02:00:00 7,0 5,0 2 1 W - 10
25.03.2019 01:00:00 8,0 6,3 2 1 N 1018,3 10
25.03.2019 00:00:00 9,0 7,0 0 0 N - 10
24.03.2019 23:00:00 10,0 6,0 4 2 SE - 10
24.03.2019 22:00:00 10,2 6,5 4 2 SSE 1018,9 10
24.03.2019 21:00:00 12,0 7,0 4 2 WSW - 10
24.03.2019 20:00:00 12,0 6,0 5 3 SW - 10
24.03.2019 19:00:00 15,0 3,2 4 2 NE 1018,3 10
24.03.2019 18:00:00 17,0 2,0 8 4 NE - 10
24.03.2019 17:00:00 18,0 0,0 11 6 NNE - 10
24.03.2019 16:00:00 19,0 1,1 8 4 N 1017,9 10
24.03.2019 15:00:00 20,0 2,0 8 4 NNE - 10
24.03.2019 14:00:00 20,0 2,0 8 4 NNW - 10
24.03.2019 13:00:00 18,4 1,4 13 7 NE 1019,8 10
24.03.2019 12:00:00 18,0 2,0 13 7 N - 10
24.03.2019 11:00:00 17,0 2,0 9 5 N - 10
24.03.2019 10:00:00 16,2 4,3 13 7 N 1020,9 10
24.03.2019 09:00:00 15,0 3,0 13 7 N - 10
24.03.2019 08:00:00 13,0 2,0 13 7 N - 10
24.03.2019 07:00:00 8,0 3,1 5 3 N 1021,4 10
24.03.2019 06:00:00 8,0 2,0 4 2 NW - 10
24.03.2019 05:00:00 8,0 2,0 11 6 NNW - 10
24.03.2019 04:00:00 9,6 3,6 9 5 NNW 1020,7 10
24.03.2019 03:00:00 8,0 3,0 5 3 N - 10
24.03.2019 02:00:00 8,0 5,0 5 3 WNW - 10
24.03.2019 01:00:00 8,4 5,0 5 3 N 1021,6 10
24.03.2019 00:00:00 9,0 5,0 5 3 N - 10
23.03.2019 23:00:00 10,0 6,0 11 6 NNW - 10
23.03.2019 22:00:00 10,0 6,2 8 4 NW 1021,6 10
23.03.2019 21:00:00 10,0 7,0 11 6 NNW - 10
23.03.2019 20:00:00 11,0 6,0 8 4 NNW - 10
23.03.2019 19:00:00 12,4 5,3 11 6 NNW 1020,2 10
23.03.2019 18:00:00 14,0 4,0 15 8 N - 10
23.03.2019 17:00:00 15,0 4,0 18 10 N - 10
23.03.2019 16:00:00 15,4 4,2 18 10 N 1020,2 10
23.03.2019 15:00:00 16,0 5,0 22 12 N - 10
23.03.2019 14:00:00 16,0 5,0 21 11 N - 10
23.03.2019 13:00:00 15,4 5,9 22 12 N 1021,0 10
23.03.2019 12:00:00 15,0 7,0 22 12 N - 10
23.03.2019 11:00:00 15,0 7,0 24 13 N - 10
23.03.2019 10:00:00 13,2 6,8 24 13 N 1021,8 10
23.03.2019 09:00:00 12,0 5,0 21 11 N - 10
23.03.2019 08:00:00 11,0 4,0 15 8 NNW - 10
23.03.2019 07:00:00 9,2 3,0 15 8 NNW 1022,2 10
23.03.2019 06:00:00 9,0 3,0 16 9 NNW - 9
23.03.2019 05:00:00 9,0 4,0 13 7 N - 8
23.03.2019 04:00:00 9,0 4,8 13 7 N 1022,3 8
23.03.2019 03:00:00 9,0 5,0 11 6 N - 8
23.03.2019 02:00:00 8,0 5,0 13 7 N - 8
23.03.2019 01:00:00 9,0 6,6 9 5 NNW 1023,6 7
23.03.2019 00:00:00 9,0 8,0 11 6 NNW - 6
22.03.2019 23:00:00 9,0 9,0 9 5 NNW - 6
22.03.2019 22:00:00 9,0 9,0 8 4 NNW 1024,5 6
22.03.2019 21:00:00 9,0 8,0 5 3 NW - 7
22.03.2019 20:00:00 10,0 9,0 11 6 NNW - 8
22.03.2019 19:00:00 11,4 8,8 18 10 N 1023,9 8
22.03.2019 18:00:00 12,0 8,0 18 10 N - 10
22.03.2019 17:00:00 13,0 7,0 21 11 N - 10
22.03.2019 16:00:00 14,0 6,8 22 12 N 1024,1 10
22.03.2019 15:00:00 15,0 8,0 26 14 N - 10
22.03.2019 14:00:00 15,0 9,0 24 13 N - 10
22.03.2019 13:00:00 14,2 8,4 22 12 N 1025,5 9
22.03.2019 12:00:00 14,0 10,0 24 13 N - 8
22.03.2019 11:00:00 13,0 10,0 28 15 N - 8
22.03.2019 10:00:00 12,2 10,1 24 13 N 1025,9 8
22.03.2019 09:00:00 11,0 9,0 28 15 N - 8
22.03.2019 08:00:00 11,0 9,0 21 11 N - 10
22.03.2019 07:00:00 8,8 7,6 15 8 N 1026,3 10
22.03.2019 06:00:00 8,0 7,0 15 8 NNW - 10
22.03.2019 05:00:00 8,0 7,0 13 7 NNW - 10
22.03.2019 04:00:00 8,2 6,2 18 10 N 1025,7 10
22.03.2019 03:00:00 9,0 6,0 16 9 NNW - 10
22.03.2019 02:00:00 9,0 7,0 22 12 N - 8
22.03.2019 01:00:00 8,8 8,5 18 10 N 1027,3 8
22.03.2019 00:00:00 9,0 9,0 13 7 NNW - 8
21.03.2019 23:00:00 8,0 8,0 22 12 N - 8
21.03.2019 22:00:00 8,8 8,4 22 12 N 1027,4 8
21.03.2019 21:00:00 9,0 8,0 16 9 N - 8
21.03.2019 20:00:00 10,0 9,0 16 9 NNW - 8
21.03.2019 19:00:00 10,0 8,4 13 7 N 1025,5 8
21.03.2019 18:00:00 11,0 8,0 16 9 NNW - 8
21.03.2019 17:00:00 12,0 8,0 26 14 N - 10
21.03.2019 16:00:00 13,8 9,2 21 11 N 1024,6 10
21.03.2019 15:00:00 14,0 9,0 24 13 N - 10
21.03.2019 14:00:00 14,0 9,0 29 16 N - 10
21.03.2019 13:00:00 14,0 9,2 28 15 N 1025,4 10
21.03.2019 12:00:00 14,0 9,0 34 18 N - 10
21.03.2019 11:00:00 13,0 10,0 28 15 N - 10
21.03.2019 10:00:00 12,0 8,3 28 15 N 1025,9 10
21.03.2019 09:00:00 11,0 8,0 26 14 N - 10
21.03.2019 08:00:00 9,0 6,0 16 9 N - 10
21.03.2019 07:00:00 8,0 5,8 18 10 NNW 1025,6 10
21.03.2019 06:00:00 7,0 4,0 15 8 NNW - 10
21.03.2019 05:00:00 7,0 4,0 15 8 NNW - 10
21.03.2019 04:00:00 7,2 4,0 15 8 NNW 1025,1 10
21.03.2019 03:00:00 7,0 5,0 15 8 NNW - 10
21.03.2019 02:00:00 7,0 5,0 22 12 NNW - 10
21.03.2019 01:00:00 8,0 6,5 13 7 NNW 1025,2 10
21.03.2019 00:00:00 8,0 6,0 13 7 NNW - 10
20.03.2019 23:00:00 8,0 6,0 15 8 NNW - 10
20.03.2019 22:00:00 8,0 6,5 16 9 NNW 1024,9 10
20.03.2019 21:00:00 8,0 8,0 16 9 NNW - 10
20.03.2019 20:00:00 9,0 8,0 21 11 NNW - 10
20.03.2019 19:00:00 8,8 8,2 13 7 NNW 1023,3 10
20.03.2019 18:00:00 10,0 9,0 21 11 NNW - 10
20.03.2019 17:00:00 11,0 9,0 21 11 NNW - 10
20.03.2019 16:00:00 10,8 8,0 21 11 NNW 1022,4 10
20.03.2019 15:00:00 11,0 9,0 22 12 N - 10
20.03.2019 14:00:00 11,0 9,0 21 11 N - 10
20.03.2019 13:00:00 11,2 10,4 21 11 NNW 1022,5 9
20.03.2019 12:00:00 11,0 11,0 26 14 NNW - 8
20.03.2019 11:00:00 10,0 10,0 22 12 NW - 7
20.03.2019 10:00:00 9,4 9,4 22 12 NNW 1022,4 7
20.03.2019 09:00:00 9,0 9,0 16 9 NNW - 6
20.03.2019 08:00:00 9,0 9,0 16 9 NNW - 4,0
20.03.2019 07:00:00 8,8 8,8 15 8 NNW 1020,9 3,5
20.03.2019 06:00:00 9,0 9,0 13 7 NNW - 2,7
20.03.2019 05:00:00 9,0 9,0 16 9 NNW - 2,5
20.03.2019 04:00:00 9,0 9,0 18 10 N 1020,4 2,5
20.03.2019 03:00:00 9,0 9,0 21 11 N - 2,5
20.03.2019 02:00:00 9,0 9,0 15 8 N - 3,5
20.03.2019 01:00:00 9,4 8,2 16 9 N 1020,3 3,5
20.03.2019 00:00:00 9,0 9,0 15 8 N - 3,2
19.03.2019 23:00:00 10,0 10,0 16 9 NNW - 2,8
19.03.2019 22:00:00 10,0 10,0 16 9 NNW 1019,4 2,5
19.03.2019 21:00:00 11,0 11,0 16 9 NNW - 2,5
19.03.2019 20:00:00 11,0 11,0 15 8 NNW - 3,0
19.03.2019 19:00:00 11,0 10,7 15 8 N 1017,8 3,0
19.03.2019 18:00:00 11,0 11,0 15 8 NNW - 3,0
19.03.2019 17:00:00 11,0 11,0 11 6 NNW - 2,5
19.03.2019 16:00:00 11,6 11,6 16 9 N 1016,4 2,5
19.03.2019 15:00:00 12,0 12,0 16 9 N - 3,0
19.03.2019 14:00:00 12,0 12,0 16 9 N - 3,5
19.03.2019 13:00:00 12,2 11,4 13 7 N 1016,7 3,5
19.03.2019 12:00:00 12,0 11,0 13 7 N - 3,5
19.03.2019 11:00:00 12,0 11,0 11 6 N - 3,5
19.03.2019 10:00:00 11,8 10,5 13 7 N 1016,2 3,5
19.03.2019 09:00:00 13,0 12,0 5 3 ENE - 7
19.03.2019 08:00:00 12,0 11,0 9 5 E - 6
19.03.2019 07:00:00 11,0 10,7 5 3 NNE 1015,5 3,0

tt = temperature
td = dewpoint
ff = wind speed
dd = wind direction
ppp = reduced air pressure
vv = visibility

Next stations